Tracking 18980 objects as of 22-Feb-2018
HD Live streaming from Space Station
objects crossing your sky now

FENGYUN 1C DEB

Track FENGYUN 1C DEB now!
10-day predictions


NORAD ID: 33728
Int'l Code: 1999-025DHR
Perigee: 520.0 km
Apogee: 813.5 km
Inclination: 99.0 °
Period: 97.9 minutes
Semi major axis: 7037 km
RCS: 0.0056 m2 (small)
Launch date: May 10, 1999
Source: People's Republic of China (PRC)
Launch site: Taiyaun Space Center, China (TSC)

Note: This is SATELLITE DEBRIS
aabbcc
Your satellite tracking list
Your tracking list is empty




NASA's NSSDC Master Catalog

Two Line Element Set (TLE):
1 33728U 99025DHR 18051.14183552 +.00000360 +00000-0 +51357-4 0  9996
2 33728 098.9832 112.3046 0208534 136.5197 280.6274 14.70451258562329
Source of the keplerian elements: AFSPC